(276955) = 2002 EJ36 = 2004 TB300

Discovered at Kitt Peak on 2004-10-08 by Spacewatch.

Orbit

Orbit type: Main Belt

Note: WebGL enabled browser required.

epoch2024-03-31.0
epoch JD2460400.5
perihelion date2021-07-09.72689
perihelion JD2459405.22689
argument of perihelion (°)317.21730
ascending node (°)15.31799
inclination (°)5.17638
eccentricity0.0452216
perihelion distance (AU)2.5425960
Tisserand w.r.t. Jupiter3.4
ΔV w.r.t. Earth (km/sec)10.1
semimajor axis (AU)2.6630220
mean anomaly (°)225.72725
mean daily motion (°/day)0.22679930
aphelion distance (AU)2.783
period (years)4.35
P-vector [x]0.88656328
P-vector [y]-0.39631755
P-vector [z]-0.23861676
Q-vector [x]0.46199294
Q-vector [y]0.78508902
Q-vector [z]0.41255031
absolute magnitude16.83
phase slope0.15
uncertainty0
referenceMPEC 2024-F50
observations used306
oppositions15
arc length (days)8046
first opposition used2002
last opposition used2024
residual rms (arc-secs)0.75
perturbers coarse indicatorM-v
perturbers precise indicator003Ek
first observation date used2002-03-09.0
last observation date used2024-03-19.0
computer nameMPCLINUX
JD of orbit computation2456639.511361
perihelion JD uncertainty (days)2.8434E-04
argument of perihelion uncertainty (°)8.4901E-05
ascending node uncertainty (°)5.5130E-05
inclination uncertainty (°)6.3331E-06
eccentricity uncertainty 5.8572E-08
perihelion distance uncertainty (AU)1.6298E-07
Minimum Orbit Intersection Distances (in AU)
for orbit epoch: 2460400.5, reference: E2024-GB3
Mercury2.11901
Venus1.81471
Earth1.53528
Mars1.1166
Jupiter2.36955
Saturn6.33494
Uranus15.6602
Neptune27.2158

Observations

312 total observations over interval: 2002 03 09.29224 – 2024 03 19.509380
These data are available for download (format description).

Date (UT) J2000 RA J2000 Dec Magn Location Ref
2002 03 09.29224 11 28 21.67 +07 18 16.0 21.6   644 – Palomar Mountain/NEAT MPS 54847
2002 03 09.37833 11 28 16.87 +07 18 37.8 21.5   644 – Palomar Mountain/NEAT MPS 54847
2002 03 09.39324 11 28 16.02 +07 18 41.1 20.9 V 691 – Steward Observatory, Kitt Peak-Spacewatch MPS 55738
2002 03 09.41501 11 28 14.82 +07 18 46.6 21.0 V 691 – Steward Observatory, Kitt Peak-Spacewatch MPS 55738
2002 03 09.43645 11 28 13.62 +07 18 51.6 20.9 V 691 – Steward Observatory, Kitt Peak-Spacewatch MPS 55738
2002 03 09.44151 11 28 13.32 +07 18 53.0 21.5   644 – Palomar Mountain/NEAT MPS 54847
2002 03 13.28812 11 24 44.73 +07 34 31.3 20.7 V 291 – LPL/Spacewatch II MPS 55738
2002 03 13.32681 11 24 42.54 +07 34 40.6 20.8 V 291 – LPL/Spacewatch II MPS 55738
2002 03 13.38231 11 24 39.45 +07 34 53.5 20.9 V 291 – LPL/Spacewatch II MPS 55738
2004 10 08.33830 02 18 38.19 +15 53 11.2 20.4 V 691 – Steward Observatory, Kitt Peak-Spacewatch MPS 118679
2004 10 08.36563 02 18 36.82 +15 53 08.4 20.3 V 691 – Steward Observatory, Kitt Peak-Spacewatch MPS 118679
2004 10 08.39262 02 18 35.47 +15 53 06.2 20.3 V 691 – Steward Observatory, Kitt Peak-Spacewatch MPS 118679
2004 10 15.32318 02 12 40.15 +15 39 52.9 20.2 V 691 – Steward Observatory, Kitt Peak-Spacewatch MPS 118679
2004 10 15.35016 02 12 38.62 +15 39 49.1 20.2 V 691 – Steward Observatory, Kitt Peak-Spacewatch MPS 118679
2004 10 15.37761 02 12 37.08 +15 39 45.5 20.2 V 691 – Steward Observatory, Kitt Peak-Spacewatch MPS 118679
2004 10 23.22944 02 05 16.55 +15 19 39.6 19.5 V 291 – LPL/Spacewatch II MPS 118679
2004 10 23.23697 02 05 16.07 +15 19 38.2 20.4 V 291 – LPL/Spacewatch II MPS 118679
2004 10 23.24369 02 05 15.67 +15 19 37.0 20.3 V 291 – LPL/Spacewatch II MPS 118679
2006 01 31.17892 09 30 55.19 +22 01 12.1 20.5 V 691 – Steward Observatory, Kitt Peak-Spacewatch MPS 161814
2006 01 31.19621 09 30 54.21 +22 01 16.5 20.6 V 691 – Steward Observatory, Kitt Peak-Spacewatch MPS 161814
2006 01 31.21349 09 30 53.18 +22 01 20.9 20.8 V 691 – Steward Observatory, Kitt Peak-Spacewatch MPS 161814
2006 02 03.16340 09 28 02.36 +22 12 48.1   691 – Steward Observatory, Kitt Peak-Spacewatch MPS 162802
2006 02 03.18076 09 28 01.37 +22 12 52.3   691 – Steward Observatory, Kitt Peak-Spacewatch MPS 162802
2006 02 03.19814 09 28 00.31 +22 12 56.3   691 – Steward Observatory, Kitt Peak-Spacewatch MPS 162802
2006 02 07.17172 09 24 06.26 +22 27 20.7   691 – Steward Observatory, Kitt Peak-Spacewatch MPS 162802
2006 02 07.18903 09 24 05.19 +22 27 24.2   691 – Steward Observatory, Kitt Peak-Spacewatch MPS 162802
2006 02 07.20633 09 24 04.13 +22 27 28.4   691 – Steward Observatory, Kitt Peak-Spacewatch MPS 162802
2008 09 07.29956 23 46 53.00 -05 17 17.3 20.0 V G96 – Mt. Lemmon Survey MPS 255854
2008 09 07.30894 23 46 52.50 -05 17 19.3 20.0 V G96 – Mt. Lemmon Survey MPS 255854
2008 09 07.31351 23 46 52.24 -05 17 20.3 19.9 V G96 – Mt. Lemmon Survey MPS 255854
2008 09 23.27817 23 32 45.42 -06 12 36.5 20.1 V G96 – Mt. Lemmon Survey MPS 256687
2008 09 23.28553 23 32 45.02 -06 12 37.9 19.9 V G96 – Mt. Lemmon Survey MPS 256687
2008 09 23.29281 23 32 44.59 -06 12 39.2 20.0 V G96 – Mt. Lemmon Survey MPS 256687
2008 09 23.30008 23 32 44.23 -06 12 40.6 20.2 V G96 – Mt. Lemmon Survey MPS 256687
2008 11 24.09042 23 18 06.15 -05 10 10.0 21.4 V G96 – Mt. Lemmon Survey MPS 266437
2008 11 24.09706 23 18 06.33 -05 10 08.6 22.1 V G96 – Mt. Lemmon Survey MPS 266437
2008 11 24.10377 23 18 06.51 -05 10 05.7 21.9 V G96 – Mt. Lemmon Survey MPS 266437
2008 11 24.11047 23 18 06.76 -05 10 04.0 21.4 V G96 – Mt. Lemmon Survey MPS 266437
2010 01 10.21310 06 52 14.30 +30 57 05.4 20.3 V G96 – Mt. Lemmon Survey MPS 310177
2010 01 10.21777 06 52 14.01 +30 57 06.0 20.6 V G96 – Mt. Lemmon Survey MPS 310177
2010 01 10.22247 06 52 13.69 +30 57 06.0 20.3 V G96 – Mt. Lemmon Survey MPS 310177
2010 01 10.23162 06 52 13.11 +30 57 06.9 20.2 V G96 – Mt. Lemmon Survey MPS 310177
2010 01 10.23635 06 52 12.79 +30 57 06.8 20.4 V G96 – Mt. Lemmon Survey MPS 310177
2011 03 26.25219 13 24 32.48 -09 01 50.0 20.3 V 691 – Steward Observatory, Kitt Peak-Spacewatch MPS 375522
2011 03 26.26990 13 24 31.75 -09 01 47.5 21.0 V 691 – Steward Observatory, Kitt Peak-Spacewatch MPS 375522
2011 03 26.28760 13 24 30.86 -09 01 44.7 20.6 V 691 – Steward Observatory, Kitt Peak-Spacewatch MPS 375522
2011 04 28.33629 12 56 05.263 -07 12 18.40 21.0 w F51 – Pan-STARRS 1, Haleakala MPS 380027
2011 04 28.35038 12 56 04.599 -07 12 15.87 21.0 w F51 – Pan-STARRS 1, Haleakala MPS 380027
2011 04 28.36462 12 56 03.933 -07 12 13.41 20.9 w F51 – Pan-STARRS 1, Haleakala MPS 380027
2011 04 28.37870 12 56 03.276 -07 12 11.04 20.9 w F51 – Pan-STARRS 1, Haleakala MPS 380027
2011 05 11.16190 12 48 02.98 -06 42 30.5 21.0 V 691 – Steward Observatory, Kitt Peak-Spacewatch MPS 382133
2011 05 11.18049 12 48 02.44 -06 42 27.9 21.1 V 691 – Steward Observatory, Kitt Peak-Spacewatch MPS 382133
2011 05 11.19911 12 48 01.81 -06 42 27.1 20.6 V 691 – Steward Observatory, Kitt Peak-Spacewatch MPS 382133
2012 07 28.43516 21 07 21.107 -24 41 47.51 19.8 i F51 – Pan-STARRS 1, Haleakala MPS 429014
2012 07 28.44613 21 07 20.473 -24 41 49.66 19.8 i F51 – Pan-STARRS 1, Haleakala MPS 429014
2012 08 12.41245 20 53 09.002 -25 21 19.62 20.3 g F51 – Pan-STARRS 1, Haleakala MPS 429973
2012 08 12.42283 20 53 08.402 -25 21 20.79 20.4 g F51 – Pan-STARRS 1, Haleakala MPS 429973
2012 08 13.51998 20 52 07.89 -25 23 07.0 20.6 V E12 – Siding Spring Survey MPS 429973
2012 08 13.53141 20 52 07.21 -25 23 07.3 20.6 V E12 – Siding Spring Survey MPS 429973
2012 08 13.54284 20 52 06.67 -25 23 09.6 19.6 V E12 – Siding Spring Survey MPS 429973
2012 08 13.55421 20 52 05.91 -25 23 11.0 20.2 V E12 – Siding Spring Survey MPS 429973
2013 11 26.38878 04 20 24.58 +27 56 22.5 20.4 V G96 – Mt. Lemmon Survey MPS 489782
2013 11 26.40112 04 20 23.77 +27 56 22.3 19.8 V G96 – Mt. Lemmon Survey MPS 489782
2013 11 26.41345 04 20 22.88 +27 56 22.2 19.9 V G96 – Mt. Lemmon Survey MPS 489782
2013 11 26.42578 04 20 22.17 +27 56 20.6 19.9 V G96 – Mt. Lemmon Survey MPS 489782
2013 12 03.29803 04 13 03.960 +27 46 51.11 20.2 w F51 – Pan-STARRS 1, Haleakala MPS 490875
2013 12 03.31215 04 13 03.046 +27 46 49.80 20.3 w F51 – Pan-STARRS 1, Haleakala MPS 490875
2013 12 03.32628 04 13 02.124 +27 46 48.49 20.3 w F51 – Pan-STARRS 1, Haleakala MPS 490875
2013 12 03.34047 04 13 01.203 +27 46 47.13 20.3 w F51 – Pan-STARRS 1, Haleakala MPS 490875
2015 02 10.45434 11 34 53.15 +07 25 04.5 21.3 V 691 – Steward Observatory, Kitt Peak-Spacewatch MPS 579483
2015 02 10.48442 11 34 52.04 +07 25 10.3 21.1 V 691 – Steward Observatory, Kitt Peak-Spacewatch MPS 579483
2015 02 10.50558 11 34 51.24 +07 25 15.0 21.1 V 691 – Steward Observatory, Kitt Peak-Spacewatch MPS 579483
2015 02 15.47232 11 31 41.894 +07 42 53.28 20.9 w F51 – Pan-STARRS 1, Haleakala MPS 582872
2015 02 15.48558 11 31 41.311 +07 42 56.20 20.7 w F51 – Pan-STARRS 1, Haleakala MPS 582872
2015 02 15.49884 11 31 40.738 +07 42 59.16 20.8 w F51 – Pan-STARRS 1, Haleakala MPS 582872
2015 02 15.51215 11 31 40.168 +07 43 02.17 20.7 w F51 – Pan-STARRS 1, Haleakala MPS 582872
2015 02 16.45720 11 31 00.780 +07 46 37.01 20.8 w F51 – Pan-STARRS 1, Haleakala MPS 586899
2015 02 16.47014 11 31 00.200 +07 46 40.03 20.8 w F51 – Pan-STARRS 1, Haleakala MPS 586899
2015 02 16.48304 11 30 59.640 +07 46 42.98 20.9 w F51 – Pan-STARRS 1, Haleakala MPS 586899
2015 02 16.49598 11 30 59.057 +07 46 45.93 20.9 w F51 – Pan-STARRS 1, Haleakala MPS 586899
2015 02 16.79648 11 30 46.12 +07 47 54.5 21.3 R D29 – Purple Mountain Observatory, XuYi Station MPS 582872
2015 02 16.81411 11 30 45.39 +07 47 58.3 19.7 R D29 – Purple Mountain Observatory, XuYi Station MPS 582872
2015 02 17.53962 11 30 14.116 +07 50 47.56 20.7 w F51 – Pan-STARRS 1, Haleakala MPS 582872
2015 02 17.55130 11 30 13.597 +07 50 50.37 20.7 w F51 – Pan-STARRS 1, Haleakala MPS 582872
2015 02 17.56315 11 30 13.057 +07 50 53.08 20.7 w F51 – Pan-STARRS 1, Haleakala MPS 582872
2015 02 17.57505 11 30 12.519 +07 50 55.90 20.7 w F51 – Pan-STARRS 1, Haleakala MPS 582872
2015 03 09.36094 11 13 26.13 +09 12 53.1 19.8 V G96 – Mt. Lemmon Survey MPS 586899
2015 03 09.36825 11 13 25.73 +09 12 55.3 20.0 V G96 – Mt. Lemmon Survey MPS 586899
